Location: Copper Breaks State Park
(34.1132°N, 99.7492°W)
Time: 08:42:50
(UTC-05:00)

Daily predictions for brighter satellites

Satellite Brightness Start Highest point End
(mag) Time Altitude Azimuth Time Altitude Azimuth Time Altitude Azimuth
Helios 1A 4.0 21:09:35 10° SE 21:13:17 30° ENE 21:16:58 10° N
Meteor 2-4 Rocket 4.3 21:10:59 10° SSE 21:16:09 39° E 21:21:28 10° NNE
Cosmos 1346 3.1 21:13:55 10° S 21:16:33 44° E 21:19:13 10° NNE
ALOS 4.0 21:14:22 10° SSW 21:18:33 33° W 21:22:45 10° NNW
Hubble Space Telescope 2.7 21:22:21 10° S 21:24:15 13° SSE 21:25:49 11° SE
Cosmos 923 Rocket 4.4 21:19:39 10° SSW 21:24:57 71° WNW 21:30:15 10° NNE
CZ-4B DEB 3.9 21:24:50 12° SE 21:27:01 24° ENE 21:29:29 10° NNE
Cosmos 1943 Rocket 3.4 21:22:52 10° NW 21:28:04 41° WSW 21:33:12 10° S
CENTAUR R/B 3.2 21:21:59 10° NNW 21:30:06 84° ENE 21:38:35 10° SSE
COSMOS 2455 3.7 21:27:09 10° NW 21:32:53 48° WSW 21:38:36 10° S
Helios 1B rocket 2.4 21:31:24 10° NNE 21:35:32 69° ESE 21:39:39 10° S
Okean 1-7 Rocket 4.1 21:32:45 10° SSE 21:36:55 41° E 21:41:09 10° NNE
Cosmos 405 Rocket 3.0 21:33:19 10° SSW 21:37:02 69° W 21:40:52 10° N
Meteor 1-29 3.0 21:34:04 10° NNE 21:37:22 53° E 21:40:39 10° S
ISS -0.9 21:36:11 10° W 21:38:48 21° NW 21:41:26 10° NNE
DNEPR-1 R/B 3.8 21:35:55 10° NNW 21:40:10 58° ENE 21:43:54 16° SE
Cosmos 1238 Rocket 4.2 21:34:17 10° SSE 21:40:51 58° E 21:47:14 10° NNE
Cosmos 374 Rocket 4.2 21:39:38 10° NNW 21:43:24 86° ENE 21:46:43 16° SSE
SJ-11-01 4.4 21:39:17 11° SSE 21:43:45 61° ENE 21:48:23 10° N
Cosmos 1441 Rocket 3.0 21:40:48 10° S 21:44:29 69° E 21:48:12 10° NNE
OAO 2 Rocket 3.3 21:39:51 10° W 21:44:47 81° N 21:49:22 12° E
CZ-4B DEB 4.4 21:42:21 10° SSE 21:45:49 88° E 21:49:22 10° N
USA 186 3.1 21:45:36 10° SSW 21:48:36 37° W 21:51:32 10° NNW
Aureole 1 Rocket 3.3 21:46:09 10° SSW 21:49:26 47° WNW 21:52:21 10° N
Aureole 3 Rocket 3.8 21:43:30 10° S 21:50:08 80° W 21:54:49 10° N
ASTEX 1 3.7 21:47:38 15° SSE 21:51:28 47° E 21:56:09 10° N
CZ-3A R/B 1.0 21:45:07 10° SW 21:51:51 74° SE 21:54:09 10° NE
Cosmos 1025 Rocket 3.1 21:48:37 10° S 21:52:46 56° E 21:56:57 10° NNE
Meteor 1-23 Rocket 4.1 21:50:36 10° S 21:56:06 70° E 22:01:41 10° NNE
Okean 2 3.6 21:55:11 17° SSE 21:58:05 47° E 22:02:01 10° NNE
SL-27 R/B 4.3 22:00:37 10° SW 22:03:58 34° WNW 22:07:20 10° N
ASTRO E2 3.9 22:04:11 10° WSW 22:07:36 27° SSW 22:08:44 23° S
Cosmos 1624 Rocket 4.5 22:03:07 10° N 22:08:12 45° ENE 22:10:48 26° SE
PSLV R/B 3.8 22:06:58 10° NW 22:09:59 47° NNE 22:11:10 30° ENE
H-2A R/B 3.6 22:09:14 16° E 22:10:43 18° ENE 22:14:03 10° NNE
Cosmos 2082 Rocket 2.7 22:07:29 20° SSE 22:10:46 36° ESE 22:15:54 10° NE
SAR-Lupe-4 4.2 22:10:38 17° S 22:13:11 52° W 22:16:42 10° NNW
Intercosmos 24 3.7 22:09:47 10° N 22:13:21 56° E 22:14:30 36° SE
Cosmos 1743 4.4 22:09:56 10° NNW 22:13:25 32° W 22:16:54 10° SSW
Cosmos 2058 Rocket 4.2 22:11:51 10° NNE 22:15:35 26° ENE 22:16:19 25° E
YAOGAN 6 2.5 22:17:41 31° S 22:19:13 76° W 22:22:43 10° NNW
Cosmos 2181 Rocket 4.2 22:16:20 22° SSE 22:20:21 52° E 22:26:25 10° NNE
NOSS 8 (E) 4.5 22:17:39 10° SSW 22:21:08 80° WNW 22:24:42 10° NNE
Meteor 1-15 Rocket 4.1 22:16:29 10° N 22:22:04 74° E 22:25:10 27° SSE
Envisat 4.2 22:21:16 10° SSW 22:25:57 38° W 22:30:40 10° NNW
MOS 1-B Rocket 4.1 22:23:06 29° SE 22:26:03 61° ENE 22:32:19 10° N
Resurs 01 Rocket 4.4 22:25:11 10° WSW 22:27:00 12° W 22:28:49 10° WNW
Cosmos 2056 Rocket 3.5 22:22:36 10° N 22:27:43 64° ENE 22:29:39 37° SE
H-2A R/B 4.3 22:32:00 13° ENE 22:32:16 13° ENE 22:34:12 10° NE
Cosmos 1697 Rocket 4.1 22:29:17 10° N 22:33:41 23° ENE 22:35:16 20° E
Tiangong 2 3.9 22:31:33 10° NW 22:33:43 17° N 22:35:54 10° NE
Cosmos 2369 4.1 22:30:36 10° N 22:36:09 49° ENE 22:38:01 36° ESE
Cosmos 962 Rocket 4.4 22:38:25 10° N 22:44:39 83° E 22:47:25 35° SSE
COSMOS 2487 2.8 22:44:43 46° SW 22:45:34 65° WNW 22:49:07 10° N
Cosmos 1833 Rocket 2.6 22:42:35 27° S 22:45:42 71° ESE 22:51:18 10° NNE
MetOp-A 4.1 22:43:44 38° SSE 22:45:55 87° WSW 22:51:18 10° NNW
Meteor 2-19 Rocket 4.4 22:44:23 10° N 22:50:33 85° W 22:53:21 35° S
Terra 3.3 22:51:10 22° ENE 22:51:12 22° ENE 22:54:52 10° NNE
Cosmos 1437 Rocket 3.4 22:48:12 10° NNW 22:51:57 50° W 22:52:45 42° SW
Cosmos 839 Rocket 4.4 22:45:42 10° NNW 22:52:30 75° ENE 22:55:55 38° SE
SPOT 5 2.4 22:58:02 74° SSE 22:58:25 90° SSW 23:02:47 10° NNW
Cosmos 2228 2.9 22:55:17 10° N 22:59:30 72° ENE 22:59:30 72° ENE
Cosmos 1452 Rocket 3.8 22:54:29 10° N 22:59:37 49° ENE 23:00:11 47° E
Cosmos 921 Rocket 2.9 22:56:49 10° NNW 23:01:16 80° WSW 23:01:36 74° SSW
SPOT 1/Viking Rocket 3.5 23:01:13 59° ESE 23:02:00 68° ENE 23:07:08 10° N
SL-8 Rocket 4.0 22:55:47 10° N 23:02:02 68° E 23:03:39 50° SE
ERS-1 Rocket 4.0 23:01:27 26° SSW 23:03:38 40° W 23:08:21 10° NNW
Cosmos 1066 Rocket 4.0 23:02:27 50° S 23:03:57 84° E 23:09:36 10° N
Cosmos 2366 rocket 4.1 23:02:22 10° N 23:08:23 54° E 23:09:15 50° ESE
Cosmos 1602 Rocket 3.9 23:17:48 57° NNE 23:17:48 57° NNE 23:21:19 10° N
ARGOS 3.7 23:21:12 43° SW 23:22:28 52° W 23:27:45 10° NNW
SL-08 RB Rocket 4.0 23:22:29 56° WSW 23:22:33 56° W 23:26:57 10° NNW
Cosmos 1980 Rocket 3.1 23:17:28 10° N 23:22:35 34° ENE 23:22:51 34° ENE
OAO 2 Rocket 3.9 23:24:40 10° W 23:28:19 45° WSW 23:28:19 45° WSW
Cosmos 1959 Rocket 4.4 23:24:22 10° N 23:30:45 84° W 23:31:51 63° S
Meteor 1-21 4.2 23:31:31 69° E 23:31:31 69° E 23:37:04 10° NNE
Cosmos 2322 Rocket 4.2 23:30:12 10° NNE 23:33:27 15° NE 23:34:12 15° ENE
Timation 2 Rocket 4.2 23:37:07 36° SW 23:39:48 67° WNW 23:45:59 10° NNE
USA 229 DEB 4.3 23:34:43 10° NNW 23:41:38 49° NE 23:43:05 43° E
USA 229 4.3 23:34:50 10° NNW 23:41:45 48° NE 23:43:12 43° E
Cosmos 158 Rocket 4.0 23:42:21 77° NW 23:42:21 77° NW 23:47:35 10° NNE
Meteor 2-14 Rocket 4.2 23:36:36 10° N 23:42:41 81° E 23:42:51 80° ESE
CARTOSAT-1 4.4 23:44:16 47° N 23:44:16 47° N 23:47:22 10° N
SL-08 R/B 4.4 23:39:01 10° N 23:45:07 73° W 23:45:44 67° SW
H-2A R/B 2.8 23:49:52 42° W 23:49:52 42° W 23:54:30 10° NNW
Cosmos 2218 Rocket 4.3 23:44:20 10° NNW 23:50:21 57° W 23:51:17 51° SW
Cosmos 2082 Rocket 4.1 23:50:07 10° WSW 23:54:51 27° WNW 23:59:35 10° N
